NOAA 17 DEB

Satellite information

Favourite Embed

Satellite Type and Status

DEBRISDECAYED

Key statistics

Satellite NOAA 17 DEB at a glance.

Uptime

8191

Days in orbit

Revolutions

≈ 14.4

Per day

Orbit

SSO

Sun Synchronous Orbit

Inclination

98.7

Latest

Satellite identification and parameters

Extended collection of information and parameters for NOAA 17 DEB.

Object identification

Identified? True

Debris? True

Object name: NOAA 17 DEB

International designator: 2002-032DE

Object number (NORAD): 49476

Object ID (CCSDS): 49476

Country: UNITED STATES OF AMERICA (US)

Current information (Y/N): Y

RCS size: SMALL

Orbital parameters

Decay date: Nov. 26, 2024

Period: 100.222 minutes

Inclination: 98.6932 deg

SMA: 7147.205 km

Apoapsis: 773.957 km

Periapsis: 764.182 km

RAAN: 359.0458 deg

Eccentricy: 0.0006838

Argument of periapsis: 266.2697 deg

Mean anomaly: 93.7707 deg

Mean motion: 14.36806979 rev/day

Mean motion (dot): 0.00016407 rev/day2

B* drag term: 0.0055575 1/REarth

Two-line elements (TLE)

Creation date: Feb. 12, 2024, 3:07 a.m.

Reference frame: TEME

Reference center: EARTH

Epoch: Feb. 11, 2024, 7:40 p.m. UTC

TLE line 0: 0 NOAA 17 DEB

TLE line 1: 1 49476U 02032DE 24042.81971315 .00016407 00000-0 55575-2 0 9991

TLE line 2: 2 49476 98.6932 359.0458 0006838 266.2697 93.7707 14.36806979140210

Live tracking on map

Satellite NOAA 17 DEB has decayed and is no longer in orbit. No tracking available.

In-orbit conjunctions

Satellite NOAA 17 DEB has decayed and is no longer in orbit. No conjunctions available.

Associated space launch

NOAA M carried weather imagers and microwave and infrared sounders, as well as a SARSAT search-and-rescue package. It had an on-orbit mass of 1475 kg.

NOAA 17 DEB was lifted into orbit during the mission ‘Titan II SLV | NOAA 17’, on board a Titan II SLV space rocket.

The launch took place on June 24, 2002, 6:23 p.m. from Space Launch Complex 4W.

For more information about the launch, click the button.

Launch to space Titan II SLV | NOAA 17
Titan II SLV | NOAA 17

Agency: N/A

Status: Launch Successful

Launch date: June 24, 2002, 6:23 p.m. UTC

Rocket: Titan II SLV

Launch pad: Space Launch Complex 4W

Location: Vandenberg SFB, CA, USA

...

Latest news about this satellite

There are no fresh news available about this satellite. Check back as we update our databases every day.


Newsletter sign-up

Weekly statistics, charts and insights to help you stay on top of the space industry.